When you browse on this site, cookies collect data to enhance your experience and personalize the content and advertising you see.
Visit our Privacy Policy to learn more. By continuing to use the site, you agree to this use of cookies and data.
  • In Slovakia
  • List of Countries
  • For 7 days
  • Water Temperature
  • Weather Map
  • Weather Widgets
  • user-avatar
    Login

    Hourly Weather Fremantle

    Today, 14 October, Monday

    Time Temperature Precipitation Wind Pressure Humidity
    00:00 +15°C° 0.1 mm 4 mps 762 mmHg 84%
    01:00 +15°C° 0.1 mm 5 mps 762 mmHg 86%
    02:00 +14°C° 0 mm 4 mps 761 mmHg 88%
    03:00 +14°C° 0 mm 4 mps 761 mmHg 86%
    04:00 +14°C° 0 mm 5 mps 762 mmHg 84%
    05:00 +14°C° 0 mm 5 mps 762 mmHg 82%
    06:00 +14°C° 0 mm 5 mps 762 mmHg 78%
    07:00 +15°C° 0 mm 4 mps 763 mmHg 73%
    08:00 +15°C° 0 mm 4 mps 764 mmHg 69%
    09:00 +17°C° 0 mm 4 mps 764 mmHg 66%
    10:00 +16°C° 0 mm 5 mps 764 mmHg 63%
    11:00 +17°C° 0 mm 5 mps 764 mmHg 60%
    12:00 +17°C° 0 mm 6 mps 763 mmHg 58%
    13:00 +17°C° 0 mm 6 mps 763 mmHg 56%
    14:00 +17°C° 0 mm 6 mps 763 mmHg 54%
    15:00 +17°C° 0 mm 7 mps 763 mmHg 55%
    16:00 +16°C° 0 mm 7 mps 763 mmHg 56%
    17:00 +16°C° 0 mm 7 mps 763 mmHg 57%
    18:00 +15°C° 0 mm 7 mps 764 mmHg 61%
    19:00 +15°C° 0 mm 7 mps 764 mmHg 65%
    20:00 +14°C° 0 mm 7 mps 765 mmHg 69%
    21:00 +12°C° 0 mm 7 mps 765 mmHg 67%
    22:00 +12°C° 0 mm 7 mps 765 mmHg 66%
    23:00 +11°C° 0 mm 7 mps 765 mmHg 64%

    Tomorrow, 15 October, Tuesday

    Time Temperature Precipitation Wind Pressure Humidity
    00:00 +11°C° 0 mm 7 mps 765 mmHg 65%
    01:00 +11°C° 0 mm 6 mps 765 mmHg 66%
    02:00 +10°C° 0 mm 6 mps 765 mmHg 67%
    03:00 +10°C° 0 mm 5 mps 765 mmHg 69%
    04:00 +9°C° 0 mm 5 mps 766 mmHg 71%
    05:00 +9°C° 0 mm 5 mps 766 mmHg 73%
    06:00 +10°C° 0 mm 5 mps 766 mmHg 68%
    07:00 +12°C° 0 mm 4 mps 766 mmHg 63%
    08:00 +12°C° 0 mm 4 mps 767 mmHg 57%
    09:00 +14°C° 0 mm 4 mps 767 mmHg 53%
    10:00 +15°C° 0 mm 4 mps 767 mmHg 49%
    11:00 +17°C° 0 mm 4 mps 767 mmHg 45%
    12:00 +16°C° 0 mm 5 mps 766 mmHg 47%
    13:00 +16°C° 0 mm 6 mps 766 mmHg 50%
    14:00 +16°C° 0 mm 7 mps 765 mmHg 53%
    15:00 +16°C° 0 mm 7 mps 765 mmHg 55%
    16:00 +15°C° 0 mm 7 mps 765 mmHg 57%
    17:00 +15°C° 0 mm 7 mps 766 mmHg 59%
    18:00 +15°C° 0 mm 7 mps 766 mmHg 62%
    19:00 +14°C° 0 mm 7 mps 766 mmHg 65%
    20:00 +14°C° 0 mm 7 mps 767 mmHg 69%
    21:00 +13°C° 0 mm 6 mps 767 mmHg 71%
    22:00 +13°C° 0 mm 6 mps 767 mmHg 74%
    23:00 +11°C° 0 mm 6 mps 768 mmHg 76%

    Day after tomorrow, 16 October, Wednesday

    Time Temperature Precipitation Wind Pressure Humidity
    00:00 +12°C° 0 mm 5 mps 768 mmHg 75%
    01:00 +10°C° 0 mm 5 mps 767 mmHg 75%
    02:00 +11°C° 0 mm 4 mps 767 mmHg 74%
    03:00 +11°C° 0 mm 4 mps 767 mmHg 75%
    04:00 +10°C° 0 mm 4 mps 767 mmHg 75%
    05:00 +10°C° 0 mm 4 mps 767 mmHg 76%
    06:00 +11°C° 0 mm 3 mps 767 mmHg 71%
    07:00 +12°C° 0 mm 3 mps 768 mmHg 66%
    08:00 +13°C° 0 mm 3 mps 768 mmHg 61%
    09:00 +16°C° 0 mm 3 mps 768 mmHg 55%
    10:00 +17°C° 0 mm 2 mps 768 mmHg 48%
    11:00 +19°C° 0 mm 2 mps 768 mmHg 42%
    12:00 +19°C° 0 mm 3 mps 767 mmHg 44%
    13:00 +19°C° 0 mm 4 mps 767 mmHg 47%
    14:00 +19°C° 0 mm 6 mps 766 mmHg 50%
    15:00 +17°C° 0 mm 6 mps 766 mmHg 52%
    16:00 +17°C° 0 mm 6 mps 766 mmHg 54%
    17:00 +17°C° 0 mm 7 mps 766 mmHg 57%
    18:00 +16°C° 0 mm 7 mps 766 mmHg 61%
    19:00 +15°C° 0 mm 6 mps 767 mmHg 66%
    20:00 +14°C° 0 mm 6 mps 767 mmHg 70%
    21:00 +14°C° 0 mm 6 mps 767 mmHg 72%
    22:00 +13°C° 0 mm 6 mps 767 mmHg 74%
    23:00 +13°C° 0 mm 5 mps 767 mmHg 75%

    17 October, Thursday

    Time Temperature Precipitation Wind Pressure Humidity
    00:00 +12°C° 0 mm 5 mps 766 mmHg 76%
    01:00 +12°C° 0 mm 5 mps 766 mmHg 77%
    02:00 +12°C° 0 mm 4 mps 765 mmHg 79%
    03:00 +11°C° 0 mm 4 mps 765 mmHg 79%
    04:00 +11°C° 0 mm 4 mps 765 mmHg 80%
    05:00 +11°C° 0 mm 4 mps 765 mmHg 81%
    06:00 +12°C° 0 mm 4 mps 766 mmHg 77%
    07:00 +12°C° 0 mm 3 mps 766 mmHg 72%
    08:00 +13°C° 0 mm 3 mps 766 mmHg 68%
    09:00 +16°C° 0 mm 3 mps 766 mmHg 63%
    10:00 +17°C° 0 mm 3 mps 766 mmHg 58%
    11:00 +19°C° 0 mm 3 mps 766 mmHg 52%
    12:00 +19°C° 0 mm 4 mps 766 mmHg 54%
    13:00 +19°C° 0 mm 5 mps 765 mmHg 55%
    14:00 +19°C° 0 mm 6 mps 765 mmHg 56%
    15:00 +18°C° 0 mm 7 mps 764 mmHg 59%
    16:00 +17°C° 0 mm 7 mps 764 mmHg 62%
    17:00 +17°C° 0 mm 7 mps 764 mmHg 64%
    18:00 +16°C° 0 mm 7 mps 764 mmHg 69%
    19:00 +15°C° 0 mm 6 mps 765 mmHg 73%
    20:00 +15°C° 0 mm 6 mps 765 mmHg 78%
    21:00 +15°C° 0 mm 6 mps 765 mmHg 79%
    22:00 +14°C° 0 mm 6 mps 765 mmHg 80%
    23:00 +14°C° 0 mm 6 mps 764 mmHg 81%

    18 October, Friday

    Time Temperature Precipitation Wind Pressure Humidity
    00:00 +14°C° 0 mm 6 mps 764 mmHg 81%
    01:00 +13°C° 0 mm 6 mps 764 mmHg 81%
    02:00 +13°C° 0 mm 6 mps 764 mmHg 81%
    03:00 +13°C° 0 mm 5 mps 764 mmHg 80%
    04:00 +13°C° 0 mm 5 mps 764 mmHg 80%
    05:00 +13°C° 0 mm 5 mps 764 mmHg 80%
    06:00 +14°C° 0 mm 4 mps 764 mmHg 76%
    07:00 +15°C° 0 mm 4 mps 765 mmHg 72%
    08:00 +17°C° 0 mm 4 mps 765 mmHg 68%
    09:00 +18°C° 0 mm 4 mps 765 mmHg 61%
    10:00 +20°C° 0 mm 3 mps 764 mmHg 54%
    11:00 +22°C° 0 mm 3 mps 764 mmHg 47%
    12:00 +22°C° 0 mm 4 mps 764 mmHg 48%
    13:00 +22°C° 0 mm 5 mps 763 mmHg 49%
    14:00 +22°C° 0 mm 7 mps 763 mmHg 50%
    15:00 +22°C° 0 mm 7 mps 762 mmHg 53%
    16:00 +22°C° 0 mm 7 mps 762 mmHg 56%
    17:00 +22°C° 0 mm 7 mps 762 mmHg 58%
    18:00 +21°C° 0 mm 7 mps 762 mmHg 59%
    19:00 +20°C° 0 mm 7 mps 762 mmHg 60%
    20:00 +18°C° 0 mm 7 mps 762 mmHg 61%
    21:00 +18°C° 0 mm 7 mps 762 mmHg 60%
    22:00 +18°C° 0 mm 7 mps 762 mmHg 58%
    23:00 +19°C° 0 mm 6 mps 762 mmHg 56%

    19 October, Saturday

    Time Temperature Precipitation Wind Pressure Humidity
    00:00 +17°C° 0 mm 7 mps 762 mmHg 56%
    01:00 +16°C° 0 mm 7 mps 762 mmHg 56%
    02:00 +16°C° 0 mm 7 mps 762 mmHg 56%
    03:00 +15°C° 0 mm 7 mps 762 mmHg 58%
    04:00 +15°C° 0 mm 7 mps 762 mmHg 59%
    05:00 +14°C° 0 mm 7 mps 762 mmHg 60%
    06:00 +15°C° 0 mm 6 mps 762 mmHg 58%
    07:00 +16°C° 0 mm 6 mps 762 mmHg 56%
    08:00 +17°C° 0 mm 5 mps 762 mmHg 54%
    09:00 +20°C° 0 mm 4 mps 762 mmHg 51%
    10:00 +22°C° 0 mm 3 mps 761 mmHg 49%
    11:00 +26°C° 0 mm 2 mps 761 mmHg 46%
    12:00 +26°C° 0 mm 3 mps 760 mmHg 45%
    13:00 +27°C° 0 mm 3 mps 760 mmHg 44%
    14:00 +27°C° 0 mm 4 mps 759 mmHg 43%
    15:00 +26°C° 0 mm 4 mps 759 mmHg 47%
    16:00 +26°C° 0 mm 5 mps 758 mmHg 51%
    17:00 +25°C° 0 mm 5 mps 758 mmHg 56%
    18:00 +23°C° 0 mm 5 mps 758 mmHg 59%
    19:00 +22°C° 0 mm 5 mps 759 mmHg 63%
    20:00 +21°C° 0 mm 6 mps 759 mmHg 67%
    21:00 +20°C° 0 mm 5 mps 759 mmHg 71%
    22:00 +20°C° 0 mm 4 mps 760 mmHg 74%
    23:00 +19°C° 0 mm 4 mps 760 mmHg 78%
    Show more